Regional Weather Roundup
Issued by NWS Sterling, VA

Home | Current Version | Previous Version | Text Only | Print | Product List | Glossary Off
Versions: 1 2 3 4 5 6 7 8 9 10 11 12 13 14 15 16 17 18 19 20 21 22 23 24 25 26 27 28

000
ASUS41 KLWX 190111
RWRLWX

REGIONAL WEATHER ROUNDUP
NATIONAL WEATHER SERVICE BALTIMORE MD/WASHINGTON DC
900 PM EDT WED OCT 18 2017

Note: "FAIR" indicates few or no clouds below 12,000 feet
with no significant weather and/or obstructions to visibility.
 TC=TEMPERATURE CELSIUS

 * =Non NWS site. Station does not report precipitation (e.g. rain,
    snow, etc.), thunder, or fog.

DCZ001-MDZ009-015-VAZ040>042-051-053>054-190200-
WASHINGTON METRO

CITY           SKY/WX    TMP DP  RH WIND       PRES   REMARKS
WASHINGTON NAT PTCLDY    60  48  64 S6        30.32R
DULLES         PTCLDY    56  44  64 S5        30.31R
ANDREWS AFB    CLEAR     51  46  80 S5        30.31R
FT BELVOIR     CLEAR     49  47  92 CALM      30.32R
QUANTICO       CLEAR     54  51  90 NW6       30.33R
COLLEGE PARK*  CLEAR     51  46  84 CALM      30.31S
LEESBURG*      CLEAR     55  46  71 S6        30.31S
MANASSAS*      CLEAR     48  45  89 CALM      30.32R
GAITHERSBURG*  CLEAR     57  42  57 S5        30.32R

$$

MDZ006>007-011-014-190200-
BALTIMORE METRO

CITY           SKY/WX    TMP DP  RH WIND       PRES   REMARKS
BWI AIRPORT    PTCLDY    53  47  79 CALM      30.31R
MD SCIENCE CTR   N/A     62  48  60 MISG      30.32R
MARTIN STATE   CLEAR     61  54  77 S3        30.33R
ANNAPOLIS      CLEAR     59  51  75 CALM      30.32R
FORT MEADE*    CLEAR     46  46 100 CALM      30.34R

$$

MDZ012-015-019>023-190200-
MARYLAND EASTERN SHORE

CITY           SKY/WX    TMP DP  RH WIND       PRES   REMARKS
OCEAN CITY     CLEAR     49  47  93 CALM      30.34S
SALISBURY      CLEAR     50  48  93 E3        30.33R
CAMBRIDGE*     CLEAR     50  46  87 CALM      30.33R
EASTON*        CLEAR     55  46  71 CALM      30.36R

$$

MDZ017>025-190200-
SOUTHERN MARYLAND

CITY           SKY/WX    TMP DP  RH WIND       PRES   REMARKS
PATUXENT RIVER PTCLDY    57  46  66 S7        30.32R
ST INIGOES     CLEAR     51  47  86 CALM      30.32R
LEONARDTOWN*   NOT AVBL

$$

MDZ003>005-190200-
NORTH CENTRAL MARYLAND

CITY           SKY/WX    TMP DP  RH WIND       PRES   REMARKS
FREDERICK*     NOT AVBL
HAGERSTOWN APT CLEAR     59  44  57 E6        30.28F
WESTMINSTER*   CLEAR     57  46  67 S3        30.31S

$$

MDZ501>502-190200-
WESTERN MARYLAND

CITY           SKY/WX    TMP DP  RH WIND       PRES   REMARKS
OAKLAND*       CLEAR     52  34  50 SE7       30.26S
CUMBERLAND*    CLEAR     57  43  58 NW3       30.30S

$$

VAZ025>031-190200-
SHENANDOAH VALLEY

CITY           SKY/WX    TMP DP  RH WIND       PRES   REMARKS
WINCHESTER*    CLEAR     52  41  66 S3        30.28S
FRONT ROYAL*   CLEAR     54  41  62 CALM      30.28S
LURAY*         CLEAR     55  41  58 S5        30.29F
NEW MARKET*    CLEAR     48  41  76 CALM      30.29F
STAUNTON*      CLOUDY    49  40  69 SW3       30.32F
WAYNESBORO*    CLEAR     51  42  71 SE5       30.32S

$$

WVZ021-048>050-054>055-190200-
EASTERN WEST VIRGINIA PANHANDLE

CITY           SKY/WX    TMP DP  RH WIND       PRES   REMARKS
MARTINSBURG    CLEAR     52  42  69 CALM      30.28S
PETERSBURG*    CLEAR     47  42  84 CALM      30.28S

$$

VAZ036>039-050-190200-
CENTRAL FOOTHILLS

CITY           SKY/WX    TMP DP  RH WIND       PRES   REMARKS
CHARLOTTESVILL CLEAR     51  43  74 CALM      30.31S
CULPEPER*      CLEAR     47  42  81 CALM      30.32S
ORANGE*        CLEAR     46  43  87 CALM      30.31F
GORDONSVILLE*  CLEAR     46  45  94 CALM      30.32S
WARRENTON*     CLEAR     48  39  71 CALM      30.30F

$$

VAZ055>057-190200-
NORTH AND CENTRAL PIEDMONT

CITY           SKY/WX    TMP DP  RH WIND       PRES   REMARKS
FREDERICKSBRG* CLEAR     51  47  84 CALM      30.31S
STAFFORD*      CLEAR     46  46 100 CALM      30.36S

$$

NCZ024-NYZ072-PAZ021-071-VAZ022-071-190200-
OTHER REGIONAL OBSERVATIONS

CITY           SKY/WX    TMP DP  RH WIND       PRES   REMARKS
NEW YORK CITY  CLEAR     64  47  53 VRB3      30.31R
PHILADELPHIA   CLEAR     61  48  62 S8        30.31R
PITTSBURGH     PTCLDY    56  44  64 CALM      30.23R
ROANOKE        CLEAR     53  41  63 CALM      30.34S
RICHMOND       PTCLDY    53  44  71 CALM      30.33S
RALEIGH        PTCLDY    52  46  80 CALM      30.34R

$$

ANZ530>537-190200-
MARINE OBSERVATIONS

STATION/POSITION TIME  TEMP    WIND        PRES
                       AIR SEA DIR/SP/G
                 (UTC) (F)     (DEG/KT/KT) (MB)
THOMAS PT LIGHT  0100   65 67  210/  9/ 11   N/A
BALT KEY BRIDGE  0042   62     210/  7/  9 1026.3R
COVE POINT       0042   61     200/  7/  8 1027.4R
LEWISETTA        0042   58 65  210/  4/  5 1026.9R
SOLOMONS ISLAND  0042   61 69  200/  7/  8 1026.4R
PINEY POINT      0048          210/ 10/ 11   N/A

$$





USA.gov is the U.S. government's official web portal to all federal, state and local government web resources and services.